.
WxDataArchive / Data Records for 2013-09-16
2013-09-15 September 2013 2013-09-17

Data Records for Monday, 16 September 2013

Time	Temp	Chill	HIndex	Humid	Dewpt	 Wind 	HiWind	WindDir	Rain 	Barom 
-----	----	-----	------	-----	-----	------	------	-------	-----	----- 
00:00	56.2	56.2	56.2	95	54.8	0	3	90	0.00	30.105 
00:05	56.2	56.2	56.2	95	54.8	0	2	90	0.00	30.105 
00:10	56.2	56.2	56.2	95	54.8	0	2	180	0.00	30.105 
00:15	56.2	56.2	56.2	95	54.8	0	1	180	0.00	30.102 
00:20	56.2	56.2	56.2	95	54.8	0	0	---	0.00	30.102 
00:25	56.2	56.2	56.2	95	54.8	0	1	180	0.00	30.102 
00:30	56.2	56.2	56.2	95	54.8	0	1	180	0.00	30.107 
00:35	56.2	56.2	56.2	95	54.8	0	2	68	0.00	30.107 
00:40	56.2	56.2	56.2	95	54.8	0	2	68	0.00	30.107 
00:45	56.2	56.2	56.2	95	54.8	0	1	68	0.00	30.108 
00:50	56.2	56.2	56.2	95	54.8	0	3	68	0.00	30.108 
00:55	56.2	56.2	56.2	95	54.8	0	1	68	0.00	30.108 
01:00	56.0	56.0	56.0	95	54.6	0	2	68	0.00	30.108 
01:05	56.0	56.0	56.0	95	54.6	0	3	68	0.00	30.108 
01:10	56.0	56.0	56.0	95	54.6	0	2	68	0.00	30.108 
01:15	56.0	56.0	56.0	95	54.6	0	1	68	0.00	30.111 
01:20	56.0	56.0	56.0	95	54.6	0	2	68	0.00	30.111 
01:25	56.0	56.0	56.0	95	54.6	0	1	68	0.00	30.111 
01:30	56.0	56.0	56.0	95	54.6	0	1	68	0.00	30.111 
01:35	56.0	56.0	56.0	95	54.6	0	2	68	0.00	30.111 
01:40	56.0	56.0	56.0	95	54.6	0	1	68	0.00	30.111 
01:45	56.0	56.0	56.0	95	54.6	0	1	68	0.00	30.116 
01:50	56.2	56.2	56.2	95	54.8	0	0	---	0.00	30.116 
01:55	56.2	56.2	56.2	95	54.8	0	0	---	0.00	30.116 
02:00	56.2	56.2	56.2	95	54.8	0	0	---	0.00	30.119 
02:05	56.2	56.2	56.2	95	54.8	0	1	68	0.00	30.119 
02:10	56.2	56.2	56.2	95	54.8	0	0	---	0.00	30.119 
02:15	56.2	56.2	56.2	95	54.8	0	1	68	0.00	30.124 
02:20	56.2	56.2	56.2	95	54.8	0	0	---	0.00	30.124 
02:25	56.0	56.0	56.0	95	54.6	0	0	---	0.00	30.124 
02:30	56.0	56.0	56.0	95	54.6	0	0	---	0.00	30.125 
02:35	56.0	56.0	56.0	95	54.6	0	0	---	0.00	30.125 
02:40	56.0	56.0	56.0	95	54.6	0	0	---	0.00	30.125 
02:45	56.2	56.2	56.2	95	54.8	0	0	---	0.00	30.128 
02:50	56.2	56.2	56.2	95	54.8	0	0	---	0.00	30.128 
02:55	56.2	56.2	56.2	95	54.8	0	1	68	0.00	30.128 
03:00	56.2	56.2	56.2	95	54.8	0	0	---	0.00	30.130 
03:05	56.2	56.2	56.2	95	54.8	0	1	68	0.00	30.130 
03:10	56.2	56.2	56.2	95	54.8	0	1	68	0.00	30.130 
03:15	56.2	56.2	56.2	95	54.8	0	0	---	0.00	30.136 
03:20	56.2	56.2	56.2	95	54.8	0	0	---	0.00	30.136 
03:25	56.2	56.2	56.2	95	54.8	0	0	---	0.00	30.136 
03:30	56.2	56.2	56.2	95	54.8	0	0	---	0.00	30.138 
03:35	56.2	56.2	56.2	95	54.8	0	0	---	0.00	30.138 
03:40	56.2	56.2	56.2	95	54.8	0	0	---	0.00	30.138 
03:45	56.2	56.2	56.2	95	54.8	0	0	---	0.00	30.139 
03:50	56.2	56.2	56.2	95	54.8	0	1	68	0.00	30.139 
03:55	56.2	56.2	56.2	95	54.8	0	0	---	0.00	30.139 
04:00	56.2	56.2	56.2	95	54.8	0	0	---	0.00	30.141 
04:05	56.2	56.2	56.2	95	54.8	0	0	---	0.00	30.141 
04:10	56.2	56.2	56.2	95	54.8	0	0	---	0.00	30.141 
04:15	56.2	56.2	56.2	95	54.8	0	0	---	0.00	30.147 
04:20	56.2	56.2	56.2	95	54.8	0	0	---	0.00	30.147 
04:25	56.2	56.2	56.2	95	54.8	0	0	---	0.00	30.147 
04:30	56.0	56.0	56.0	95	54.6	0	0	---	0.00	30.150 
04:35	56.0	56.0	56.0	95	54.6	0	0	---	0.00	30.150 
04:40	56.0	56.0	56.0	96	54.9	0	0	---	0.00	30.150 
04:45	56.0	56.0	56.0	95	54.6	0	0	---	0.00	30.156 
04:50	56.0	56.0	56.0	95	54.6	0	0	---	0.00	30.156 
04:55	56.0	56.0	56.0	95	54.6	0	0	---	0.00	30.156 
05:00	56.0	56.0	56.0	96	54.9	0	0	---	0.00	30.158 
05:05	56.0	56.0	56.0	96	54.9	0	0	---	0.00	30.158 
05:10	56.0	56.0	56.0	96	54.9	0	1	68	0.00	30.158 
05:15	56.0	56.0	56.0	96	54.9	0	0	---	0.00	30.159 
05:20	56.0	56.0	56.0	95	54.6	0	0	---	0.00	30.159 
05:25	56.0	56.0	56.0	95	54.6	0	0	---	0.00	30.159 
05:30	56.0	56.0	56.0	95	54.6	0	0	---	0.00	30.160 
05:35	56.0	56.0	56.0	95	54.6	0	0	---	0.00	30.160 
05:40	56.0	56.0	56.0	95	54.6	0	0	---	0.00	30.160 
05:45	56.0	56.0	56.0	96	54.9	0	0	---	0.00	30.162 
05:50	56.0	56.0	56.0	96	54.9	0	0	---	0.00	30.162 
05:55	56.0	56.0	56.0	96	54.9	0	0	---	0.00	30.162 
06:00	56.0	56.0	56.0	96	54.9	0	0	---	0.00	30.170 
06:05	56.0	56.0	56.0	96	54.9	0	0	---	0.00	30.170 
06:10	56.0	56.0	56.0	96	54.9	0	0	---	0.00	30.170 
06:15	55.9	55.9	55.9	95	54.5	0	2	68	0.00	30.183 
06:20	55.9	55.9	55.9	96	54.8	0	0	---	0.00	30.183 
06:25	55.9	55.9	55.9	96	54.8	0	0	---	0.00	30.183 
06:30	55.9	55.9	55.9	95	54.5	0	3	292	0.00	30.187 
06:35	55.7	55.7	55.7	96	54.6	0	2	292	0.00	30.187 
06:40	55.7	55.7	55.7	95	54.3	0	2	292	0.00	30.187 
06:45	55.7	55.7	55.7	95	54.3	0	1	292	0.00	30.193 
06:50	55.7	55.7	55.7	95	54.3	0	2	292	0.00	30.193 
06:55	55.7	55.7	55.7	95	54.3	0	1	292	0.00	30.193 
07:00	55.7	55.7	55.7	95	54.3	0	1	292	0.00	30.198 
07:05	55.6	55.6	55.6	95	54.2	0	1	292	0.00	30.198 
07:10	55.6	55.6	55.6	95	54.2	0	1	292	0.00	30.198 
07:15	55.6	55.6	55.6	95	54.2	0	1	292	0.00	30.205 
07:20	55.6	55.6	55.6	95	54.2	0	1	292	0.00	30.205 
07:25	55.4	55.4	55.4	95	54.0	0	1	292	0.00	30.205 
07:30	55.4	55.4	55.4	95	54.0	0	2	292	0.00	30.214 
07:35	55.4	55.4	55.4	95	54.0	0	0	---	0.00	30.214 
07:40	55.4	55.4	55.4	95	54.0	0	0	---	0.00	30.214 
07:45	55.4	55.4	55.4	95	54.0	0	0	---	0.00	30.218 
07:50	55.6	55.6	55.6	95	54.2	0	1	292	0.00	30.218 
07:55	55.6	55.6	55.6	95	54.2	0	2	292	0.00	30.218 
08:00	55.6	55.6	55.6	95	54.2	0	2	292	0.00	30.221 
08:05	55.6	55.6	55.6	95	54.2	0	3	90	0.00	30.221 
08:10	55.4	55.4	55.4	94	53.7	0	2	112	0.00	30.221 
08:15	55.3	55.3	55.3	94	53.6	0	3	90	0.00	30.229 
08:20	55.3	55.3	55.3	94	53.6	0	2	90	0.00	30.229 
08:25	55.3	55.3	55.3	94	53.6	1	3	90	0.00	30.229 
08:30	55.1	55.1	55.1	93	53.1	0	3	90	0.00	30.236 
08:35	55.1	55.1	55.1	93	53.1	0	1	90	0.00	30.236 
08:40	55.1	55.1	55.1	93	53.1	1	5	90	0.00	30.236 
08:45	55.0	55.0	55.0	92	52.7	1	5	68	0.00	30.242 
08:50	55.0	55.0	55.0	92	52.7	1	5	112	0.00	30.242 
08:55	54.7	54.7	54.7	91	52.1	2	6	90	0.00	30.242 
09:00	54.7	54.7	54.7	91	52.1	1	4	135	0.00	30.246 
09:05	54.8	54.8	54.8	91	52.2	0	2	135	0.00	30.246 
09:10	55.1	55.1	55.1	91	52.5	0	2	135	0.00	30.246 
09:15	55.3	55.3	55.3	91	52.7	1	6	135	0.00	30.259 
09:20	55.1	55.1	55.1	90	52.2	1	5	90	0.00	30.259 
09:25	55.3	55.3	55.3	89	52.1	1	4	90	0.00	30.259 
09:30	55.4	55.4	55.4	89	52.2	1	3	90	0.00	30.262 
09:35	55.9	55.9	55.9	89	52.7	1	3	90	0.00	30.262 
09:40	56.6	56.6	56.6	89	53.4	0	2	68	0.00	30.262 
09:45	56.6	56.6	56.6	86	52.5	2	6	112	0.00	30.263 
09:50	56.6	56.6	56.6	86	52.5	1	4	112	0.00	30.263 
09:55	56.6	56.6	56.6	85	52.1	2	6	112	0.00	30.263 
10:00	56.7	56.7	56.7	86	52.6	0	3	112	0.00	30.273 
10:05	56.7	56.7	56.7	85	52.2	1	3	135	0.00	30.273 
10:10	57.0	57.0	57.0	85	52.5	0	2	68	0.00	30.273 
10:15	57.3	57.3	57.3	85	52.8	0	3	68	0.00	30.278 
10:20	57.3	57.3	57.3	83	52.2	1	5	112	0.00	30.278 
10:25	57.3	57.3	57.3	82	51.9	1	6	112	0.00	30.278 
10:30	57.8	57.8	57.8	81	52.0	1	4	90	0.00	30.278 
10:35	58.3	58.3	58.3	80	52.2	1	5	90	0.00	30.278 
10:40	58.6	58.6	58.6	79	52.1	1	5	90	0.00	30.278 
10:45	58.1	58.1	58.1	80	52.0	1	3	315	0.00	30.286 
10:50	58.1	58.1	58.1	81	52.3	0	4	315	0.00	30.286 
10:55	58.1	58.1	58.1	81	52.3	0	3	315	0.00	30.286 
11:00	58.1	58.1	58.1	80	52.0	0	2	315	0.00	30.284 
11:05	58.6	58.6	58.6	80	52.4	0	3	90	0.00	30.284 
11:10	59.2	59.2	59.2	78	52.3	0	5	68	0.00	30.284 
11:15	59.5	59.5	59.5	75	51.6	1	5	68	0.00	30.288 
11:20	59.6	59.6	59.6	76	52.0	0	1	45	0.00	30.288 
11:25	59.6	59.6	59.6	76	52.0	0	3	90	0.00	30.288 
11:30	59.9	59.9	59.9	75	52.0	1	4	90	0.00	30.290 
11:35	59.9	59.9	59.9	73	51.2	1	4	112	0.00	30.290 
11:40	60.1	60.1	60.1	74	51.8	0	3	112	0.00	30.290 
11:45	60.2	60.2	60.2	74	51.9	1	5	112	0.00	30.289 
11:50	61.3	61.3	61.3	71	51.8	2	6	112	0.00	30.289 
11:55	62.0	62.0	62.0	70	52.1	2	5	90	0.00	30.289 
12:00	62.0	62.0	62.0	70	52.1	2	6	112	0.00	30.290 
12:05	61.8	61.8	61.8	69	51.5	1	4	112	0.00	30.290 
12:10	62.0	62.0	62.0	70	52.1	0	1	112	0.00	30.290 
12:15	61.8	61.8	61.8	69	51.5	0	3	112	0.00	30.294 
12:20	61.8	61.8	61.8	69	51.5	1	2	112	0.00	30.294 
12:25	61.8	61.8	61.8	70	51.9	0	3	112	0.00	30.294 
12:30	61.8	61.8	61.8	70	51.9	1	5	112	0.00	30.295 
12:35	61.5	61.5	61.5	71	52.0	1	4	90	0.00	30.295 
12:40	61.2	61.2	61.2	71	51.7	1	4	90	0.00	30.295 
12:45	61.0	61.0	61.0	71	51.5	1	3	90	0.00	30.300 
12:50	60.9	60.9	60.9	71	51.4	1	4	90	0.00	30.300 
12:55	60.9	60.9	60.9	71	51.4	0	3	90	0.00	30.300 
13:00	60.9	60.9	60.9	69	50.7	1	4	90	0.00	30.299 
13:05	61.0	61.0	61.0	70	51.1	0	3	90	0.00	30.299 
13:10	61.2	61.2	61.2	69	50.9	1	4	90	0.00	30.299 
13:15	61.2	61.2	61.2	71	51.7	1	3	90	0.00	30.304 
13:20	60.7	60.7	60.7	72	51.6	1	5	0	0.00	30.304 
13:25	60.5	60.5	60.5	73	51.8	1	3	0	0.00	30.304 
13:30	60.4	60.4	60.4	73	51.7	1	3	0	0.00	30.306 
13:35	60.4	60.4	60.4	73	51.7	0	1	0	0.00	30.306 
13:40	60.5	60.5	60.5	73	51.8	1	3	315	0.00	30.306 
13:45	60.7	60.7	60.7	74	52.4	1	4	315	0.00	30.306 
13:50	60.9	60.9	60.9	74	52.6	0	2	315	0.00	30.306 
13:55	60.9	60.9	60.9	73	52.2	0	2	315	0.00	30.306 
14:00	60.9	60.9	60.9	73	52.2	1	5	315	0.00	30.306 
14:05	60.9	60.9	60.9	73	52.2	1	3	315	0.00	30.306 
14:10	61.0	61.0	61.0	72	51.9	1	3	315	0.00	30.306 
14:15	61.2	61.2	61.2	72	52.1	1	3	315	0.00	30.306 
14:20	61.3	61.3	61.3	71	51.8	1	3	315	0.00	30.306 
14:25	61.3	61.3	61.3	70	51.4	0	2	315	0.00	30.306 
14:30	61.3	61.3	61.3	70	51.4	0	2	315	0.00	30.307 
14:35	61.5	61.5	61.5	70	51.6	0	2	315	0.00	30.307 
14:40	61.6	61.6	61.6	71	52.1	0	1	315	0.00	30.307 
14:45	62.0	62.0	62.0	71	52.5	0	3	45	0.00	30.301 
14:50	62.6	62.6	62.6	68	51.9	0	2	45	0.00	30.301 
14:55	63.2	63.2	63.2	66	51.6	1	3	45	0.00	30.301 
15:00	63.4	63.4	63.4	66	51.8	1	5	45	0.00	30.292 
15:05	63.5	63.5	63.5	65	51.5	2	6	90	0.00	30.292 
15:10	63.5	63.5	63.5	68	52.7	0	2	112	0.00	30.292 
15:15	63.5	63.5	63.5	65	51.5	1	2	112	0.00	30.287 
15:20	63.5	63.5	63.5	65	51.5	2	4	112	0.00	30.287 
15:25	63.7	63.7	63.7	67	52.5	0	2	112	0.00	30.287 
15:30	64.2	64.2	64.2	63	51.3	1	3	112	0.00	30.287 
15:35	64.0	64.0	64.0	62	50.7	1	2	112	0.00	30.287 
15:40	64.2	64.2	64.2	62	50.9	0	2	112	0.00	30.287 
15:45	64.2	64.2	64.2	61	50.5	0	2	112	0.00	30.282 
15:50	64.5	64.5	64.5	61	50.7	0	1	112	0.00	30.282 
15:55	64.7	64.7	64.7	61	50.9	1	2	112	0.00	30.282 
16:00	64.5	64.5	64.5	59	49.8	0	2	112	0.00	30.275 
16:05	64.3	64.3	64.3	57	48.7	0	2	112	0.00	30.275 
16:10	64.8	64.8	64.8	54	47.8	1	5	112	0.00	30.275 
16:15	65.6	65.6	65.6	57	49.9	1	4	112	0.00	30.270 
16:20	65.5	65.5	65.5	56	49.4	1	3	112	0.00	30.270 
16:25	65.0	65.0	65.0	57	49.4	0	3	112	0.00	30.270 
16:30	64.5	64.5	64.5	56	48.4	0	2	112	0.00	30.273 
16:35	64.2	64.2	64.2	57	48.6	0	1	112	0.00	30.273 
16:40	64.2	64.2	64.2	55	47.7	0	2	112	0.00	30.273 
16:45	64.5	64.5	64.5	53	47.0	1	5	112	0.00	30.271 
16:50	65.0	65.0	65.0	51	46.4	2	4	112	0.00	30.271 
16:55	65.2	65.2	65.2	52	47.1	0	2	112	0.00	30.271 
17:00	65.5	65.5	65.5	52	47.4	0	3	112	0.00	30.271 
17:05	65.6	65.6	65.6	52	47.5	1	2	112	0.00	30.271 
17:10	65.8	65.8	65.8	51	47.2	1	4	112	0.00	30.271 
17:15	66.1	66.1	66.1	49	46.4	1	3	22	0.00	30.269 
17:20	66.1	66.1	66.1	49	46.4	1	2	22	0.00	30.269 
17:25	66.3	66.3	66.3	49	46.6	0	1	22	0.00	30.269 
17:30	66.3	66.3	66.3	49	46.6	0	1	22	0.00	30.269 
17:35	66.6	66.6	66.6	49	46.8	0	2	22	0.00	30.269 
17:40	66.8	66.8	66.8	50	47.6	1	3	22	0.00	30.269 
17:45	66.8	66.8	66.8	50	47.6	1	4	45	0.00	30.268 
17:50	66.8	66.8	66.8	49	47.0	1	4	45	0.00	30.268 
17:55	66.4	66.4	66.4	49	46.7	1	4	90	0.00	30.268 
18:00	66.1	66.1	66.1	47	45.3	2	3	90	0.00	30.268 
18:05	65.8	65.8	65.8	49	46.1	1	3	90	0.00	30.268 
18:10	65.6	65.6	65.6	51	47.0	0	2	90	0.00	30.268 
18:15	65.3	65.3	65.3	51	46.7	1	2	90	0.00	30.266 
18:20	65.3	65.3	65.3	51	46.7	0	1	90	0.00	30.266 
18:25	65.5	65.5	65.5	51	46.9	1	4	90	0.00	30.266 
18:30	65.5	65.5	65.5	50	46.4	1	4	90	0.00	30.267 
18:35	65.2	65.2	65.2	51	46.6	1	2	90	0.00	30.267 
18:40	64.7	64.7	64.7	53	47.2	0	2	90	0.00	30.267 
18:45	64.3	64.3	64.3	54	47.3	0	2	90	0.00	30.271 
18:50	64.0	64.0	64.0	54	47.0	0	1	90	0.00	30.271 
18:55	64.0	64.0	64.0	55	47.5	0	1	90	0.00	30.271 
19:00	64.0	64.0	64.0	56	48.0	0	2	90	0.00	30.272 
19:05	64.0	64.0	64.0	55	47.5	1	3	90	0.00	30.272 
19:10	64.0	64.0	64.0	55	47.5	1	3	90	0.00	30.272 
19:15	63.9	63.9	63.9	55	47.4	1	4	90	0.00	30.274 
19:20	63.7	63.7	63.7	55	47.2	1	3	90	0.00	30.274 
19:25	63.5	63.5	63.5	56	47.5	1	3	90	0.00	30.274 
19:30	63.2	63.2	63.2	57	47.7	0	2	90	0.00	30.275 
19:35	62.9	62.9	62.9	58	47.9	1	3	90	0.00	30.275 
19:40	62.6	62.6	62.6	58	47.6	1	2	90	0.00	30.275 
19:45	62.1	62.1	62.1	60	48.0	0	1	90	0.00	30.275 
19:50	61.6	61.6	61.6	61	48.0	0	1	90	0.00	30.275 
19:55	61.3	61.3	61.3	62	48.2	0	1	90	0.00	30.275 
20:00	60.7	60.7	60.7	63	48.0	0	1	90	0.00	30.277 
20:05	60.4	60.4	60.4	64	48.2	0	0	---	0.00	30.277 
20:10	59.9	59.9	59.9	64	47.7	0	0	---	0.00	30.277 
20:15	59.5	59.5	59.5	65	47.7	0	0	---	0.00	30.282 
20:20	59.0	59.0	59.0	66	47.7	0	0	---	0.00	30.282 
20:25	58.6	58.6	58.6	67	47.7	0	0	---	0.00	30.282 
20:30	58.1	58.1	58.1	69	48.0	0	0	---	0.00	30.290 
20:35	57.8	57.8	57.8	70	48.1	0	2	90	0.00	30.290 
20:40	57.6	57.6	57.6	71	48.3	0	1	90	0.00	30.290 
20:45	57.6	57.6	57.6	70	47.9	0	2	90	0.00	30.295 
20:50	57.8	57.8	57.8	69	47.7	1	2	90	0.00	30.295 
20:55	57.8	57.8	57.8	69	47.7	0	1	90	0.00	30.295 
21:00	57.6	57.6	57.6	69	47.5	0	1	90	0.00	30.302 
21:05	57.5	57.5	57.5	70	47.8	0	1	90	0.00	30.302 
21:10	57.2	57.2	57.2	70	47.5	0	1	90	0.00	30.302 
21:15	57.0	57.0	57.0	71	47.7	0	1	90	0.00	30.305 
21:20	56.7	56.7	56.7	71	47.4	0	2	90	0.00	30.305 
21:25	56.6	56.6	56.6	71	47.3	1	4	90	0.00	30.305 
21:30	56.5	56.5	56.5	72	47.6	0	4	112	0.00	30.307 
21:35	56.3	56.3	56.3	72	47.4	0	3	112	0.00	30.307 
21:40	56.2	56.2	56.2	72	47.3	0	2	112	0.00	30.307 
21:45	56.0	56.0	56.0	72	47.1	0	2	112	0.00	30.309 
21:50	55.9	55.9	55.9	72	47.0	0	2	112	0.00	30.309 
21:55	55.7	55.7	55.7	73	47.2	0	1	112	0.00	30.309 
22:00	55.4	55.4	55.4	73	46.9	0	0	---	0.00	30.311 
22:05	55.3	55.3	55.3	73	46.8	0	1	112	0.00	30.311 
22:10	55.0	55.0	55.0	74	46.9	0	0	---	0.00	30.311 
22:15	54.7	54.7	54.7	75	46.9	0	1	112	0.00	30.310 
22:20	54.5	54.5	54.5	75	46.7	0	3	112	0.00	30.310 
22:25	54.4	54.4	54.4	75	46.6	0	1	112	0.00	30.310 
22:30	54.2	54.2	54.2	75	46.4	0	2	112	0.00	30.311 
22:35	54.1	54.1	54.1	76	46.7	0	2	112	0.00	30.311 
22:40	53.9	53.9	53.9	76	46.5	0	0	---	0.00	30.311 
22:45	53.6	53.6	53.6	76	46.2	0	3	112	0.00	30.312 
22:50	53.5	53.5	53.5	76	46.1	0	0	---	0.00	30.312 
22:55	53.3	53.3	53.3	77	46.3	0	0	---	0.00	30.312 
23:00	53.1	53.1	53.1	77	46.1	0	0	---	0.00	30.313 
23:05	52.9	52.9	52.9	78	46.2	0	0	---	0.00	30.313 
23:10	52.6	52.6	52.6	78	45.9	0	0	---	0.00	30.313 
23:15	52.3	52.3	52.3	78	45.6	0	0	---	0.00	30.314 
23:20	52.0	52.0	52.0	78	45.4	0	0	---	0.00	30.314 
23:25	51.7	51.7	51.7	79	45.4	0	0	---	0.00	30.314 
23:30	51.6	51.6	51.6	80	45.6	0	0	---	0.00	30.320 
23:35	51.3	51.3	51.3	81	45.7	0	0	---	0.00	30.320 
23:40	51.1	51.1	51.1	81	45.5	0	0	---	0.00	30.320 
23:45	50.8	50.8	50.8	81	45.2	0	0	---	0.00	30.323 
23:50	50.5	50.5	50.5	83	45.5	0	0	---	0.00	30.323 
23:55	50.4	50.4	50.4	84	45.7	0	1	112	0.00	30.323 

CoCoRaHS
IN-AL-39
A2 Web Hosting
Creative Commons License
GoDaddy
search engine by freefind advanced

loaded 2018-11-17 19:16:37 • last modified 2010-11-18 10:43:29
Privacy PolicyDisclaimer
• wx.awcolley.com is powered by PmWiki v.2002016 •
• all content (unless otherwise noted) © 2018 A W Colley